Rome Ciampino, Italy

1:27 PM CEST on April 25, 2017 (GMT +0200)
Ciampino

Weather History for LIRA - January, 2013

Change the Weather History Date:

Friday, January 18, 2013

  Actual Average Record
Temperature  
Mean Temperature 40 °F -  
Max Temperature 46 °F 54 °F 60 °F (2014)
Min Temperature 33 °F 38 °F 28 °F (2005)
Degree Days  
Heating Degree Days 26    
Moisture  
Dew Point 35 °F    
Average Humidity 83    
Maximum Humidity 100    
Minimum Humidity 62    
Precipitation  
Precipitation 0.00 in 0.13 in - ()
Sea Level Pressure  
Sea Level Pressure 29.44 in    
Wind  
Wind Speed 9 mph ()    
Max Wind Speed 24 mph    
Max Gust Speed 33 mph    
Visibility 5.4 miles    
Events      
Averages and records for this station are not official NWS values.
T = Trace of Precipitation, MM = Missing Value Source: Averaged Metar Reports

Daily Weather History Graph

Daily Weather History Graph

Search for Another Location

Airport or City:

Trip Planner

Search our weather history database for the weather conditions in past years. The results will help you decide how hot, cold, wet, or windy it might be!

Date:

Astronomy

Jan. 18, 2013 Rise Set
Actual Time 7:33 AM CET 5:07 PM CET
Civil Twilight 7:02 AM CET 5:38 PM CET
Nautical Twilight 6:28 AM CET 6:12 PM CET
Astronomical Twilight 5:55 AM CET 6:45 PM CET
Moon 10:55 AM CET (1/18) No Moon Set
Length of Visible Light 10h 35m
Length of Day
9h 34m
Waxing Crescent, 45% of the Moon is Illuminated
Jan 18
Waxing Crescent
Jan 19
First Quarter
Jan 27
Full
Feb 3
Last Quarter
Feb 10
New

Hourly Weather History & Observations

Time (CET) Temp. Windchill Dew Point Humidity Pressure Visibility Wind Dir Wind Speed Gust Speed Precip Events Conditions
12:15 AM 37.4 °F - 37.4 °F 100% 29.33 in 6.2 mi Calm Calm - N/A   Mostly Cloudy
12:45 AM 37.4 °F - 37.4 °F 100% 29.33 in 6.2 mi Calm Calm - N/A   Mostly Cloudy
1:15 AM 37.4 °F - 37.4 °F 100% 29.33 in 4.3 mi North 1.2 mph - N/A   Mostly Cloudy
1:45 AM 37.4 °F - 37.4 °F 100% 29.33 in 4.3 mi North 2.3 mph - N/A   Mostly Cloudy
2:15 AM 37.4 °F 32.8 °F 37.4 °F 100% 29.33 in 3.1 mi North 5.8 mph - N/A   Light Drizzle
2:45 AM 37.4 °F 33.8 °F 37.4 °F 100% 29.36 in 3.1 mi NNW 4.6 mph - N/A   Light Drizzle
3:15 AM 37.4 °F - 37.4 °F 100% 29.36 in 3.1 mi NNW 2.3 mph - N/A   Light Drizzle
3:45 AM 37.4 °F 32.1 °F 37.4 °F 100% 29.36 in 3.1 mi NNW 6.9 mph - N/A   Light Drizzle
4:15 AM 37.4 °F 30.8 °F 37.4 °F 100% 29.36 in 3.7 mi NNW 9.2 mph - N/A   Light Drizzle
4:45 AM 39.2 °F 32.5 °F 39.2 °F 100% 29.36 in 3.7 mi North 10.4 mph - N/A   Light Drizzle
5:15 AM 39.2 °F 33.0 °F 39.2 °F 100% 29.36 in 4.3 mi NNW 9.2 mph - N/A   Light Drizzle
5:45 AM 39.2 °F 31.6 °F 39.2 °F 100% 29.36 in 4.3 mi NNW 12.7 mph 26.5 mph N/A   Light Drizzle
6:15 AM 39.2 °F 31.2 °F 35.6 °F 87% 29.36 in 4.3 mi NNW 13.8 mph - N/A   Light Drizzle
6:45 AM 41.0 °F 34.3 °F 35.6 °F 81% 29.36 in 4.3 mi NNW 11.5 mph 25.3 mph N/A   Mostly Cloudy
7:15 AM 41.0 °F 31.6 °F 35.6 °F 81% 29.36 in 5.0 mi NNW 20.7 mph 32.2 mph N/A   Mostly Cloudy
7:45 AM 39.2 °F 31.2 °F 35.6 °F 87% 29.36 in 5.0 mi NNW 13.8 mph - N/A   Mostly Cloudy
8:15 AM 39.2 °F 30.2 °F 35.6 °F 87% 29.39 in 5.0 mi NNW 17.3 mph - N/A   Mostly Cloudy
8:45 AM 39.2 °F 29.6 °F 35.6 °F 87% 29.39 in 5.0 mi NW 19.6 mph - N/A   Mostly Cloudy
9:15 AM 39.2 °F 29.8 °F 35.6 °F 87% 29.39 in 5.6 mi NNW 18.4 mph - N/A   Scattered Clouds
9:45 AM 41.0 °F 32.5 °F 35.6 °F 81% 29.42 in 5.6 mi NNW 17.3 mph - N/A   Scattered Clouds
10:15 AM 42.8 °F 34.5 °F 37.4 °F 81% 29.42 in 5.6 mi NNW 18.4 mph - N/A   Scattered Clouds
10:45 AM 42.8 °F 34.5 °F 35.6 °F 76% 29.44 in 6.2 mi NNW 18.4 mph 33.4 mph N/A   Scattered Clouds
11:15 AM 42.8 °F 33.3 °F 35.6 °F 76% 29.44 in 6.2 mi NNW 24.2 mph - N/A   Scattered Clouds
11:45 AM 44.6 °F 36.6 °F 35.6 °F 71% 29.44 in 6.2 mi NNW 19.6 mph - N/A   Scattered Clouds
12:15 PM 44.6 °F 35.9 °F 35.6 °F 71% 29.44 in 6.2 mi NNW 23.0 mph - N/A   Scattered Clouds
12:45 PM 44.6 °F 35.7 °F 35.6 °F 71% 29.44 in 6.2 mi NNW 24.2 mph - N/A   Scattered Clouds
1:15 PM 46.4 °F 39.2 °F 35.6 °F 66% 29.44 in 6.2 mi NNW 18.4 mph - N/A   Scattered Clouds
1:45 PM 46.4 °F 39.5 °F 35.6 °F 66% 29.44 in 6.2 mi NNW 17.3 mph - N/A   Scattered Clouds
2:15 PM 46.4 °F 39.2 °F 33.8 °F 62% 29.44 in 6.2 mi NNW 18.4 mph - N/A   Scattered Clouds
2:45 PM 46.4 °F 39.0 °F 35.6 °F 66% 29.44 in 6.2 mi NNW 19.6 mph 32.2 mph N/A   Scattered Clouds
3:15 PM 46.4 °F 39.8 °F 33.8 °F 62% 29.44 in 6.2 mi North 16.1 mph 27.6 mph N/A   Scattered Clouds
3:45 PM 44.6 °F 37.4 °F 33.8 °F 66% 29.47 in 6.2 mi NNW 16.1 mph - N/A   Scattered Clouds
4:15 PM 44.6 °F 37.8 °F 33.8 °F 66% 29.47 in 6.2 mi North 15.0 mph 27.6 mph N/A   Scattered Clouds
4:45 PM 44.6 °F 36.9 °F 33.8 °F 66% 29.47 in 6.2 mi NNW 18.4 mph - N/A   Partly Cloudy
5:15 PM 42.8 °F 35.4 °F 33.8 °F 70% 29.50 in 6.2 mi NW 15.0 mph - N/A   Partly Cloudy
5:45 PM 42.8 °F 36.2 °F 33.8 °F 70% 29.50 in 6.2 mi NNW 12.7 mph - N/A   Partly Cloudy
6:15 PM 41.0 °F 34.7 °F 33.8 °F 76% 29.53 in 6.2 mi NNW 10.4 mph - N/A   Partly Cloudy
6:45 PM 41.0 °F 34.7 °F 33.8 °F 76% 29.53 in 6.2 mi NNW 10.4 mph - N/A   Partly Cloudy
7:15 PM 41.0 °F 33.9 °F 33.8 °F 76% 29.53 in 6.2 mi NNW 12.7 mph - N/A   Partly Cloudy
7:45 PM 41.0 °F 36.4 °F 33.8 °F 76% 29.53 in 6.2 mi North 6.9 mph - N/A   Partly Cloudy
8:15 PM 39.2 °F 37.0 °F 32.0 °F 75% 29.56 in 6.2 mi NNW 3.5 mph - N/A   Partly Cloudy
8:45 PM 39.2 °F - 32.0 °F 75% 29.56 in 6.2 mi North 2.3 mph - N/A   Partly Cloudy
9:15 PM 37.4 °F - 33.8 °F 87% 29.56 in 6.2 mi NNE 2.3 mph - N/A   Partly Cloudy
9:45 PM 37.4 °F - 32.0 °F 81% 29.59 in 6.2 mi NNE 2.3 mph - N/A   Partly Cloudy
10:15 PM 35.6 °F - 32.0 °F 87% 29.59 in - East 2.3 mph - N/A   Clear
10:45 PM 35.6 °F 31.7 °F 32.0 °F 87% 29.59 in - ENE 4.6 mph - N/A   Clear
11:15 PM 33.8 °F 28.6 °F 32.0 °F 93% 29.59 in - ENE 5.8 mph - N/A   Clear
11:45 PM 33.8 °F 29.6 °F 32.0 °F 93% 29.59 in - ENE 4.6 mph - N/A   Clear